Time,TemperatureF,DewpointF,PressureIn,WindDirection,WindDirectionDegrees,WindSpeedMPH,WindSpeedGustMPH,Humidity,HourlyPrecipIn,Conditions,Clouds,dailyrainin,SoftwareType,DateUTC
2013-04-19 00:05:00,76.5,69.5,29.97,SE,127,7.0,12.0,79,0.00,BKN,BKN,0.00,WeatherDisplay:10.37,2013-04-19 04:05:00,
2013-04-19 00:10:00,76.5,69.5,29.97,SE,134,9.0,15.0,79,0.00,BKN,BKN,0.00,WeatherDisplay:10.37,2013-04-19 04:10:00,
2013-04-19 00:20:00,76.3,69.7,29.97,SE,142,8.0,13.0,80,0.00,BKN,BKN,0.00,WeatherDisplay:10.37,2013-04-19 04:20:00,
2013-04-19 00:25:00,76.1,69.5,29.97,SSE,152,7.0,12.0,80,0.00,BKN,BKN,0.00,WeatherDisplay:10.37,2013-04-19 04:25:00,
2013-04-19 00:30:00,75.9,69.7,29.97,SSE,152,7.0,12.0,81,0.00,BKN,BKN,0.00,WeatherDisplay:10.37,2013-04-19 04:30:00,
2013-04-19 00:35:00,75.9,69.7,29.97,SSE,150,7.0,12.0,81,0.00,BKN,BKN,0.00,WeatherDisplay:10.37,2013-04-19 04:35:00,
2013-04-19 00:45:00,75.6,69.7,29.97,SSE,160,5.0,9.0,82,0.00,BKN,BKN,0.00,WeatherDisplay:10.37,2013-04-19 04:45:00,
2013-04-19 00:50:00,75.5,69.6,29.97,SSE,148,6.0,9.0,82,0.00,BKN,BKN,0.00,WeatherDisplay:10.37,2013-04-19 04:50:00,
2013-04-19 01:00:00,75.2,69.7,29.97,SSE,166,7.0,9.0,83,0.00,BKN,BKN,0.00,WeatherDisplay:10.37,2013-04-19 05:00:00,
2013-04-19 01:05:00,75.2,69.7,29.97,SSE,159,5.0,8.0,83,0.00,FEW,FEW,0.00,WeatherDisplay:10.37,2013-04-19 05:05:00,
2013-04-19 01:10:00,75.0,69.9,29.97,SSE,160,5.0,8.0,84,0.00,FEW,FEW,0.00,WeatherDisplay:10.37,2013-04-19 05:10:00,
2013-04-19 01:15:00,75.0,69.9,29.98,SSE,167,2.0,6.0,84,0.00,FEW,FEW,0.00,WeatherDisplay:10.37,2013-04-19 05:15:00,
2013-04-19 01:20:00,74.8,69.7,29.97,SSE,167,5.0,7.0,84,0.00,FEW,FEW,0.00,WeatherDisplay:10.37,2013-04-19 05:20:00,
2013-04-19 01:25:00,74.8,69.7,29.97,SSE,167,6.0,8.0,84,0.00,FEW,FEW,0.00,WeatherDisplay:10.37,2013-04-19 05:25:00,
2013-04-19 01:30:00,74.8,70.0,29.97,SSE,161,6.0,8.0,85,0.00,FEW,FEW,0.00,WeatherDisplay:10.37,2013-04-19 05:30:00,
2013-04-19 01:35:00,74.8,70.0,29.97,SSE,162,3.0,8.0,85,0.00,FEW,FEW,0.00,WeatherDisplay:10.37,2013-04-19 05:35:00,
2013-04-19 01:40:00,74.8,70.0,29.97,South,173,3.0,7.0,85,0.00,FEW,FEW,0.00,WeatherDisplay:10.37,2013-04-19 05:40:00,
2013-04-19 01:45:00,74.8,70.0,29.97,South,174,5.0,9.0,85,0.00,FEW,FEW,0.00,WeatherDisplay:10.37,2013-04-19 05:45:00,
2013-04-19 01:50:00,74.7,69.9,29.96,South,171,5.0,7.0,85,0.00,FEW,FEW,0.00,WeatherDisplay:10.37,2013-04-19 05:50:00,
2013-04-19 01:55:00,74.8,70.0,29.96,South,171,6.0,8.0,85,0.00,FEW,FEW,0.00,WeatherDisplay:10.37,2013-04-19 05:55:00,
2013-04-19 02:05:00,74.8,70.0,29.96,SSE,166,6.0,10.0,85,0.00,BKN,BKN,0.00,WeatherDisplay:10.37,2013-04-19 06:05:00,
2013-04-19 02:10:00,74.8,70.0,29.96,South,171,6.0,8.0,85,0.00,BKN,BKN,0.00,WeatherDisplay:10.37,2013-04-19 06:10:00,
2013-04-19 02:15:00,74.8,70.0,29.96,South,183,3.0,7.0,85,0.00,BKN,BKN,0.00,WeatherDisplay:10.37,2013-04-19 06:15:00,
2013-04-19 02:20:00,74.8,70.0,29.97,South,180,6.0,7.0,85,0.00,BKN,BKN,0.00,WeatherDisplay:10.37,2013-04-19 06:20:00,
2013-04-19 02:25:00,74.8,70.0,29.96,South,173,3.0,7.0,85,0.00,BKN,BKN,0.00,WeatherDisplay:10.37,2013-04-19 06:25:00,
2013-04-19 02:30:00,74.8,70.0,29.96,South,173,5.0,10.0,85,0.00,BKN,BKN,0.00,WeatherDisplay:10.37,2013-04-19 06:30:00,
2013-04-19 02:35:00,74.8,70.0,29.96,South,178,6.0,7.0,85,0.00,BKN,BKN,0.00,WeatherDisplay:10.37,2013-04-19 06:35:00,
2013-04-19 02:40:00,74.8,70.0,29.96,South,185,3.0,7.0,85,0.00,BKN,BKN,0.00,WeatherDisplay:10.37,2013-04-19 06:40:00,
2013-04-19 02:50:00,74.7,70.3,29.95,South,182,5.0,9.0,86,0.00,BKN,BKN,0.00,WeatherDisplay:10.37,2013-04-19 06:50:00,
2013-04-19 03:00:00,74.7,70.2,29.96,SSW,192,5.0,7.0,86,0.00,BKN,BKN,0.00,WeatherDisplay:10.37,2013-04-19 07:00:00,
2013-04-19 03:05:00,74.5,70.0,29.95,South,184,3.0,7.0,86,0.00,BKN,BKN,0.00,WeatherDisplay:10.37,2013-04-19 07:05:00,
2013-04-19 03:10:00,74.5,70.0,29.95,South,179,3.0,5.0,86,0.00,BKN,BKN,0.00,WeatherDisplay:10.37,2013-04-19 07:10:00,
2013-04-19 03:15:00,74.5,70.4,29.95,South,185,3.0,6.0,87,0.00,BKN,BKN,0.00,WeatherDisplay:10.37,2013-04-19 07:15:00,
2013-04-19 03:20:00,74.3,70.2,29.95,SSW,196,2.0,6.0,87,0.00,BKN,BKN,0.00,WeatherDisplay:10.37,2013-04-19 07:20:00,
2013-04-19 03:30:00,74.1,70.0,29.95,SSW,205,2.0,6.0,87,0.00,BKN,BKN,0.00,WeatherDisplay:10.37,2013-04-19 07:30:00,
2013-04-19 03:35:00,73.9,69.8,29.95,South,187,3.0,7.0,87,0.00,BKN,BKN,0.00,WeatherDisplay:10.37,2013-04-19 07:35:00,
2013-04-19 03:40:00,73.9,69.8,29.95,South,174,2.0,5.0,87,0.00,BKN,BKN,0.00,WeatherDisplay:10.37,2013-04-19 07:40:00,
2013-04-19 03:45:00,73.9,70.2,29.95,South,172,5.0,6.0,88,0.00,BKN,BKN,0.00,WeatherDisplay:10.37,2013-04-19 07:45:00,
2013-04-19 03:50:00,73.9,70.1,29.95,South,187,3.0,6.0,88,0.00,BKN,BKN,0.00,WeatherDisplay:10.37,2013-04-19 07:50:00,
2013-04-19 03:55:00,73.8,70.0,29.95,SSW,194,2.0,5.0,88,0.00,BKN,BKN,0.00,WeatherDisplay:10.37,2013-04-19 07:55:00,
2013-04-19 04:00:00,73.8,70.0,29.95,SSW,198,5.0,5.0,88,0.00,BKN,BKN,0.00,WeatherDisplay:10.37,2013-04-19 08:00:00,
2013-04-19 04:05:00,73.8,70.0,29.95,South,189,5.0,6.0,88,0.00,SCT,SCT,0.00,WeatherDisplay:10.37,2013-04-19 08:05:00,
2013-04-19 04:10:00,73.8,70.0,29.95,South,184,2.0,5.0,88,0.00,SCT,SCT,0.00,WeatherDisplay:10.37,2013-04-19 08:10:00,
2013-04-19 04:20:00,73.7,70.3,29.95,South,185,3.0,4.0,89,0.00,SCT,SCT,0.00,WeatherDisplay:10.37,2013-04-19 08:20:00,
2013-04-19 04:25:00,73.8,70.3,29.95,South,182,5.0,7.0,89,0.00,SCT,SCT,0.00,WeatherDisplay:10.37,2013-04-19 08:25:00,
2013-04-19 04:30:00,73.8,70.3,29.95,South,177,5.0,6.0,89,0.00,SCT,SCT,0.00,WeatherDisplay:10.37,2013-04-19 08:30:00,
2013-04-19 04:40:00,73.8,70.3,29.95,South,181,3.0,6.0,89,0.00,SCT,SCT,0.00,WeatherDisplay:10.37,2013-04-19 08:40:00,
2013-04-19 04:45:00,73.8,70.3,29.95,South,179,5.0,6.0,89,0.00,SCT,SCT,0.00,WeatherDisplay:10.37,2013-04-19 08:45:00,
2013-04-19 04:50:00,73.8,70.3,29.95,South,183,3.0,7.0,89,0.00,SCT,SCT,0.00,WeatherDisplay:10.37,2013-04-19 08:50:00,
2013-04-19 05:00:00,73.8,70.3,29.94,SSE,165,3.0,7.0,89,0.00,SCT,SCT,0.00,WeatherDisplay:10.37,2013-04-19 09:00:00,
2013-04-19 05:05:00,73.6,70.1,29.95,SSE,159,5.0,6.0,89,0.00,SCT,SCT,0.00,WeatherDisplay:10.37,2013-04-19 09:05:00,
2013-04-19 05:10:00,73.5,70.1,29.95,SSE,156,5.0,6.0,89,0.00,SCT,SCT,0.00,WeatherDisplay:10.37,2013-04-19 09:10:00,
2013-04-19 05:15:00,73.4,70.0,29.95,SSE,157,5.0,6.0,89,0.00,SCT,SCT,0.00,WeatherDisplay:10.37,2013-04-19 09:15:00,
2013-04-19 05:20:00,73.4,70.0,29.95,SSE,154,3.0,6.0,89,0.00,BKN,BKN,0.00,WeatherDisplay:10.37,2013-04-19 09:20:00,
2013-04-19 05:30:00,73.2,69.8,29.94,SSE,156,5.0,7.0,89,0.00,BKN,BKN,0.00,WeatherDisplay:10.37,2013-04-19 09:30:00,
2013-04-19 05:40:00,73.0,69.9,29.94,SSE,158,5.0,5.0,90,0.00,BKN,BKN,0.00,WeatherDisplay:10.37,2013-04-19 09:40:00,
2013-04-19 05:50:00,73.0,69.5,29.94,SSE,157,2.0,6.0,89,0.00,BKN,BKN,0.00,WeatherDisplay:10.37,2013-04-19 09:50:00,
2013-04-19 05:55:00,72.9,69.4,29.94,SSE,156,2.0,5.0,89,0.00,BKN,BKN,0.00,WeatherDisplay:10.37,2013-04-19 09:55:00,
2013-04-19 06:00:00,72.7,69.2,29.94,SSE,150,2.0,5.0,89,0.00,BKN,BKN,0.00,WeatherDisplay:10.37,2013-04-19 10:00:00,
2013-04-19 06:05:00,72.7,69.6,29.95,SSE,153,2.0,5.0,90,0.00,SCT,SCT,0.00,WeatherDisplay:10.37,2013-04-19 10:05:00,
2013-04-19 06:15:00,72.5,69.4,29.95,SSE,147,3.0,6.0,90,0.00,SCT,SCT,0.00,WeatherDisplay:10.37,2013-04-19 10:15:00,
2013-04-19 06:20:00,72.5,69.4,29.94,SSE,153,3.0,5.0,90,0.00,SCT,SCT,0.00,WeatherDisplay:10.37,2013-04-19 10:20:00,
2013-04-19 06:30:00,72.5,69.4,29.95,SSE,152,5.0,6.0,90,0.00,SCT,SCT,0.00,WeatherDisplay:10.37,2013-04-19 10:30:00,
2013-04-19 06:40:00,72.3,69.2,29.95,SSE,161,2.0,5.0,90,0.00,SCT,SCT,0.00,WeatherDisplay:10.37,2013-04-19 10:40:00,
2013-04-19 06:50:00,72.3,69.5,29.95,SSE,148,2.0,6.0,91,0.00,SCT,SCT,0.00,WeatherDisplay:10.37,2013-04-19 10:50:00,
2013-04-19 06:55:00,72.3,69.5,29.96,SSE,162,3.0,6.0,91,0.00,SCT,SCT,0.00,WeatherDisplay:10.37,2013-04-19 10:55:00,
2013-04-19 07:00:00,72.3,69.5,29.96,SSE,164,3.0,5.0,91,0.00,SCT,SCT,0.00,WeatherDisplay:10.37,2013-04-19 11:00:00,
2013-04-19 07:05:00,72.1,69.4,29.96,SSE,159,2.0,3.0,91,0.00,SCT,SCT,0.00,WeatherDisplay:10.37,2013-04-19 11:05:00,
2013-04-19 07:10:00,72.1,69.4,29.96,SSE,150,2.0,4.0,91,0.00,SCT,SCT,0.00,WeatherDisplay:10.37,2013-04-19 11:10:00,
2013-04-19 07:20:00,72.3,69.5,29.97,SSE,151,2.0,5.0,91,0.00,SCT,SCT,0.00,WeatherDisplay:10.37,2013-04-19 11:20:00,
2013-04-19 07:25:00,72.4,69.6,29.97,SSE,153,2.0,4.0,91,0.00,SCT,SCT,0.00,WeatherDisplay:10.37,2013-04-19 11:25:00,
2013-04-19 07:30:00,72.7,69.9,29.97,SSE,151,5.0,5.0,91,0.00,SCT,SCT,0.00,WeatherDisplay:10.37,2013-04-19 11:30:00,
2013-04-19 07:40:00,73.2,70.4,29.98,SSE,157,3.0,6.0,91,0.00,SCT,SCT,0.00,WeatherDisplay:10.37,2013-04-19 11:40:00,
2013-04-19 07:45:00,73.7,70.5,29.98,SSE,156,3.0,5.0,90,0.00,SCT,SCT,0.00,WeatherDisplay:10.37,2013-04-19 11:45:00,
2013-04-19 07:50:00,74.1,70.7,29.98,SSE,158,3.0,8.0,89,0.00,SCT,SCT,0.00,WeatherDisplay:10.37,2013-04-19 11:50:00,
2013-04-19 07:55:00,74.6,70.8,29.98,SSE,153,6.0,7.0,88,0.00,SCT,SCT,0.00,WeatherDisplay:10.37,2013-04-19 11:55:00,
2013-04-19 08:00:00,75.0,70.9,29.98,SSE,162,5.0,7.0,87,0.00,SCT,SCT,0.00,WeatherDisplay:10.37,2013-04-19 12:00:00,
2013-04-19 08:10:00,75.9,71.1,29.99,South,174,8.0,9.0,85,0.00,SCT,SCT,0.00,WeatherDisplay:10.37,2013-04-19 12:10:00,
2013-04-19 08:15:00,76.2,71.3,29.99,SSE,158,3.0,9.0,85,0.00,SCT,SCT,0.00,WeatherDisplay:10.37,2013-04-19 12:15:00,
2013-04-19 08:20:00,76.5,71.3,29.99,SSE,164,6.0,9.0,84,0.00,SCT,SCT,0.00,WeatherDisplay:10.37,2013-04-19 12:20:00,
2013-04-19 08:30:00,76.6,71.4,29.99,SSE,156,8.0,10.0,84,0.00,SCT,SCT,0.00,WeatherDisplay:10.37,2013-04-19 12:30:00,
2013-04-19 08:40:00,77.2,71.6,29.99,South,169,7.0,12.0,83,0.00,SCT,SCT,0.00,WeatherDisplay:10.37,2013-04-19 12:40:00,
2013-04-19 08:45:00,76.9,71.3,29.99,South,172,9.0,10.0,83,0.00,SCT,SCT,0.00,WeatherDisplay:10.37,2013-04-19 12:45:00,
2013-04-19 08:50:00,77.4,71.8,29.99,South,179,5.0,10.0,83,0.00,SCT,SCT,0.00,WeatherDisplay:10.37,2013-04-19 12:50:00,
2013-04-19 09:00:00,77.7,71.4,29.99,SSE,159,9.0,15.0,81,0.00,SCT,SCT,0.00,WeatherDisplay:10.37,2013-04-19 13:00:00,
2013-04-19 09:10:00,78.4,72.1,29.98,SSE,164,10.0,13.0,81,0.00,SCT,SCT,0.00,WeatherDisplay:10.37,2013-04-19 13:10:00,
2013-04-19 09:20:00,78.9,72.2,29.99,SSE,160,7.0,13.0,80,0.00,SCT,SCT,0.00,WeatherDisplay:10.37,2013-04-19 13:20:00,
2013-04-19 09:30:00,78.5,71.4,29.99,South,172,8.0,13.0,79,0.00,SCT,SCT,0.00,WeatherDisplay:10.37,2013-04-19 13:30:00,
2013-04-19 09:35:00,78.4,71.8,29.99,SSE,168,7.0,14.0,80,0.00,BKN,BKN,0.00,WeatherDisplay:10.37,2013-04-19 13:35:00,
2013-04-19 09:40:00,78.6,71.9,29.99,South,178,10.0,12.0,80,0.00,BKN,BKN,0.00,WeatherDisplay:10.37,2013-04-19 13:40:00,
2013-04-19 09:45:00,79.2,71.7,29.98,South,187,8.0,15.0,78,0.00,BKN,BKN,0.00,WeatherDisplay:10.37,2013-04-19 13:45:00,
2013-04-19 09:50:00,79.5,71.3,29.98,South,183,6.0,13.0,76,0.00,BKN,BKN,0.00,WeatherDisplay:10.37,2013-04-19 13:50:00,
2013-04-19 10:00:00,80.8,71.7,29.98,South,170,8.0,14.0,74,0.00,BKN,BKN,0.00,WeatherDisplay:10.37,2013-04-19 14:00:00,
2013-04-19 10:05:00,80.3,71.6,29.98,South,170,8.0,14.0,75,0.00,BKN,BKN,0.00,WeatherDisplay:10.37,2013-04-19 14:05:00,
2013-04-19 10:10:00,80.2,71.5,29.98,South,171,7.0,12.0,75,0.00,BKN,BKN,0.00,WeatherDisplay:10.37,2013-04-19 14:10:00,
2013-04-19 10:20:00,81.0,71.1,29.98,SSE,165,8.0,13.0,72,0.00,BKN,BKN,0.00,WeatherDisplay:10.37,2013-04-19 14:20:00,
2013-04-19 10:25:00,81.4,71.9,29.98,SSE,167,6.0,12.0,73,0.00,BKN,BKN,0.00,WeatherDisplay:10.37,2013-04-19 14:25:00,
2013-04-19 10:35:00,82.1,71.7,29.98,South,180,7.0,12.0,71,0.00,BKN,BKN,0.00,WeatherDisplay:10.37,2013-04-19 14:35:00,
2013-04-19 10:40:00,83.1,71.5,29.98,SSE,166,9.0,12.0,68,0.00,BKN,BKN,0.00,WeatherDisplay:10.37,2013-04-19 14:40:00,
2013-04-19 10:45:00,82.7,71.0,29.99,SSE,167,9.0,14.0,68,0.00,BKN,BKN,0.00,WeatherDisplay:10.37,2013-04-19 14:45:00,
2013-04-19 10:50:00,82.5,70.5,29.99,SSE,166,9.0,13.0,67,0.00,BKN,BKN,0.00,WeatherDisplay:10.37,2013-04-19 14:50:00,
2013-04-19 10:55:00,82.6,70.5,29.99,South,170,10.0,14.0,67,0.00,BKN,BKN,0.00,WeatherDisplay:10.37,2013-04-19 14:55:00,
2013-04-19 11:00:00,82.9,70.8,29.99,South,184,9.0,13.0,67,0.00,BKN,BKN,0.00,WeatherDisplay:10.37,2013-04-19 15:00:00,
2013-04-19 11:05:00,82.8,70.7,29.99,South,190,13.0,15.0,67,0.00,SCT,SCT,0.00,WeatherDisplay:10.37,2013-04-19 15:05:00,
2013-04-19 11:10:00,82.2,70.2,29.98,SSW,192,7.0,15.0,67,0.00,SCT,SCT,0.00,WeatherDisplay:10.37,2013-04-19 15:10:00,
2013-04-19 11:20:00,82.6,70.1,29.99,SSW,198,7.0,14.0,66,0.00,SCT,SCT,0.00,WeatherDisplay:10.37,2013-04-19 15:20:00,
2013-04-19 11:25:00,82.6,70.1,29.99,SSW,201,9.0,13.0,66,0.00,SCT,SCT,0.00,WeatherDisplay:10.37,2013-04-19 15:25:00,
2013-04-19 11:30:00,82.6,70.1,29.99,SSW,201,10.0,14.0,66,0.00,SCT,SCT,0.00,WeatherDisplay:10.37,2013-04-19 15:30:00,
2013-04-19 11:40:00,83.1,70.2,29.98,SSW,201,6.0,15.0,65,0.00,SCT,SCT,0.00,WeatherDisplay:10.37,2013-04-19 15:40:00,
2013-04-19 11:50:00,83.9,70.0,29.98,South,178,12.0,14.0,63,0.00,SCT,SCT,0.00,WeatherDisplay:10.37,2013-04-19 15:50:00,
2013-04-19 11:55:00,84.7,70.2,29.98,South,182,7.0,14.0,62,0.00,SCT,SCT,0.00,WeatherDisplay:10.37,2013-04-19 15:55:00,
2013-04-19 12:05:00,84.9,69.4,29.98,SSW,202,7.0,13.0,60,0.00,SCT,SCT,0.00,WeatherDisplay:10.37,2013-04-19 16:05:00,
2013-04-19 12:10:00,84.6,69.7,29.97,SSW,204,7.0,12.0,61,0.00,SCT,SCT,0.00,WeatherDisplay:10.37,2013-04-19 16:10:00,
2013-04-19 12:15:00,85.8,70.3,29.97,South,187,8.0,14.0,60,0.00,SCT,SCT,0.00,WeatherDisplay:10.37,2013-04-19 16:15:00,
2013-04-19 12:20:00,85.5,70.0,29.97,South,175,10.0,14.0,60,0.00,SCT,SCT,0.00,WeatherDisplay:10.37,2013-04-19 16:20:00,
2013-04-19 12:30:00,85.4,68.9,29.97,SSW,209,10.0,13.0,58,0.00,SCT,SCT,0.00,WeatherDisplay:10.37,2013-04-19 16:30:00,
2013-04-19 12:35:00,85.4,68.9,29.96,SSW,205,3.0,12.0,58,0.00,SCT,SCT,0.00,WeatherDisplay:10.37,2013-04-19 16:35:00,
2013-04-19 12:45:00,86.4,68.3,29.96,SSW,202,10.0,15.0,55,0.00,SCT,SCT,0.00,WeatherDisplay:10.37,2013-04-19 16:45:00,
2013-04-19 12:50:00,86.3,67.7,29.96,SSW,204,13.0,17.0,54,0.00,SCT,SCT,0.00,WeatherDisplay:10.37,2013-04-19 16:50:00,
2013-04-19 13:00:00,87.0,67.8,29.95,SSW,203,7.0,12.0,53,0.00,SCT,SCT,0.00,WeatherDisplay:10.37,2013-04-19 17:00:00,
2013-04-19 13:10:00,86.7,68.1,29.96,SSW,194,9.0,12.0,54,0.00,SCT,SCT,0.00,WeatherDisplay:10.37,2013-04-19 17:10:00,
2013-04-19 13:20:00,87.3,68.0,29.95,SSW,193,8.0,12.0,53,0.00,SCT,SCT,0.00,WeatherDisplay:10.37,2013-04-19 17:20:00,
2013-04-19 13:25:00,87.7,67.3,29.95,SSW,198,7.0,12.0,51,0.00,SCT,SCT,0.00,WeatherDisplay:10.37,2013-04-19 17:25:00,
2013-04-19 13:30:00,88.2,67.8,29.95,South,182,10.0,12.0,51,0.00,SCT,SCT,0.00,WeatherDisplay:10.37,2013-04-19 17:30:00,
2013-04-19 13:40:00,87.8,67.4,29.94,South,183,13.0,14.0,51,0.00,SCT,SCT,0.00,WeatherDisplay:10.37,2013-04-19 17:40:00,
2013-04-19 13:45:00,87.3,67.5,29.94,South,181,9.0,14.0,52,0.00,SCT,SCT,0.00,WeatherDisplay:10.37,2013-04-19 17:45:00,
2013-04-19 13:50:00,87.0,67.8,29.94,South,191,8.0,14.0,53,0.00,SCT,SCT,0.00,WeatherDisplay:10.37,2013-04-19 17:50:00,
2013-04-19 14:00:00,86.7,67.5,29.93,SSW,203,5.0,10.0,53,0.00,SCT,SCT,0.00,WeatherDisplay:10.37,2013-04-19 18:00:00,
2013-04-19 14:05:00,87.9,68.1,29.93,SSW,199,7.0,9.0,52,0.00,BKN,BKN,0.00,WeatherDisplay:10.37,2013-04-19 18:05:00,
2013-04-19 14:10:00,87.8,67.4,29.93,South,177,6.0,11.0,51,0.00,BKN,BKN,0.00,WeatherDisplay:10.37,2013-04-19 18:10:00,
2013-04-19 14:15:00,87.8,67.4,29.93,South,177,9.0,12.0,51,0.00,BKN,BKN,0.00,WeatherDisplay:10.37,2013-04-19 18:15:00,
2013-04-19 14:25:00,89.1,68.1,29.92,SSW,204,3.0,14.0,50,0.00,BKN,BKN,0.00,WeatherDisplay:10.37,2013-04-19 18:25:00,
2013-04-19 14:30:00,89.3,67.0,29.92,SW,215,10.0,13.0,48,0.00,BKN,BKN,0.00,WeatherDisplay:10.37,2013-04-19 18:30:00,
2013-04-19 14:40:00,89.2,67.5,29.92,SSW,202,13.0,14.0,49,0.00,BKN,BKN,0.00,WeatherDisplay:10.37,2013-04-19 18:40:00,
2013-04-19 14:50:00,88.5,66.9,29.91,SSW,198,9.0,15.0,49,0.00,BKN,BKN,0.00,WeatherDisplay:10.37,2013-04-19 18:50:00,
2013-04-19 14:55:00,87.9,66.3,29.91,SSW,196,9.0,14.0,49,0.00,BKN,BKN,0.00,WeatherDisplay:10.37,2013-04-19 18:55:00,
2013-04-19 15:00:00,88.1,67.1,29.90,SSW,201,7.0,10.0,50,0.00,BKN,BKN,0.00,WeatherDisplay:10.37,2013-04-19 19:00:00,
2013-04-19 15:05:00,89.0,67.4,29.90,SSW,193,8.0,13.0,49,0.00,BKN,BKN,0.00,WeatherDisplay:10.37,2013-04-19 19:05:00,
2013-04-19 15:10:00,89.4,67.1,29.90,SSW,194,8.0,13.0,48,0.00,BKN,BKN,0.00,WeatherDisplay:10.37,2013-04-19 19:10:00,
2013-04-19 15:15:00,89.1,67.4,29.90,SSW,198,9.0,13.0,49,0.00,BKN,BKN,0.00,WeatherDisplay:10.37,2013-04-19 19:15:00,
2013-04-19 15:20:00,89.6,66.7,29.89,SSW,195,13.0,15.0,47,0.00,BKN,BKN,0.00,WeatherDisplay:10.37,2013-04-19 19:20:00,
2013-04-19 15:30:00,90.5,67.5,29.88,South,186,8.0,12.0,47,0.00,BKN,BKN,0.00,WeatherDisplay:10.37,2013-04-19 19:30:00,
2013-04-19 15:35:00,91.1,67.4,29.88,South,189,7.0,10.0,46,0.00,BKN,BKN,0.00,WeatherDisplay:10.37,2013-04-19 19:35:00,
2013-04-19 15:40:00,90.5,66.9,29.88,South,174,13.0,17.0,46,0.00,BKN,BKN,0.00,WeatherDisplay:10.37,2013-04-19 19:40:00,
2013-04-19 15:45:00,89.6,67.3,29.88,South,178,8.0,15.0,48,0.00,BKN,BKN,0.00,WeatherDisplay:10.37,2013-04-19 19:45:00,
2013-04-19 15:50:00,89.2,67.0,29.87,South,184,7.0,11.0,48,0.00,BKN,BKN,0.00,WeatherDisplay:10.37,2013-04-19 19:50:00,
2013-04-19 16:00:00,89.1,68.0,29.87,SSE,168,5.0,10.0,50,0.00,BKN,BKN,0.00,WeatherDisplay:10.37,2013-04-19 20:00:00,
2013-04-19 16:05:00,90.0,67.1,29.86,South,183,9.0,12.0,47,0.00,BKN,BKN,0.00,WeatherDisplay:10.37,2013-04-19 20:05:00,
2013-04-19 16:10:00,89.4,66.5,29.87,South,190,9.0,14.0,47,0.00,BKN,BKN,0.00,WeatherDisplay:10.37,2013-04-19 20:10:00,
2013-04-19 16:20:00,89.2,67.0,29.86,South,182,8.0,14.0,48,0.00,BKN,BKN,0.00,WeatherDisplay:10.37,2013-04-19 20:20:00,
2013-04-19 16:25:00,88.8,67.2,29.87,South,191,5.0,10.0,49,0.00,BKN,BKN,0.00,WeatherDisplay:10.37,2013-04-19 20:25:00,
2013-04-19 16:30:00,88.3,66.8,29.87,South,188,7.0,13.0,49,0.00,BKN,BKN,0.00,WeatherDisplay:10.37,2013-04-19 20:30:00,
2013-04-19 16:35:00,88.0,67.0,29.86,South,189,6.0,13.0,50,0.00,BKN,BKN,0.00,WeatherDisplay:10.37,2013-04-19 20:35:00,
2013-04-19 16:40:00,88.0,67.0,29.86,SSW,201,8.0,10.0,50,0.00,BKN,BKN,0.00,WeatherDisplay:10.37,2013-04-19 20:40:00,
2013-04-19 16:50:00,81.9,71.2,29.88,WSW,251,12.0,17.0,70,0.03,RA,RA,0.03,WeatherDisplay:10.37,2013-04-19 20:50:00,
2013-04-19 17:00:00,75.5,69.2,29.88,West,263,8.0,12.0,81,0.15,RA,RA,0.15,WeatherDisplay:10.37,2013-04-19 21:00:00,
2013-04-19 17:05:00,76.0,69.8,29.87,West,272,3.0,7.0,81,0.15,RA,RA,0.15,WeatherDisplay:10.37,2013-04-19 21:05:00,
2013-04-19 17:10:00,75.9,70.0,29.88,WNW,286,5.0,6.0,82,0.15,BKN,BKN,0.15,WeatherDisplay:10.37,2013-04-19 21:10:00,
2013-04-19 17:15:00,75.6,70.4,29.89,West,269,5.0,6.0,84,0.20,RA,RA,0.20,WeatherDisplay:10.37,2013-04-19 21:15:00,
2013-04-19 17:20:00,75.9,70.0,29.88,SW,233,2.0,6.0,82,0.20,RA,RA,0.20,WeatherDisplay:10.37,2013-04-19 21:20:00,
2013-04-19 17:30:00,76.8,70.5,29.88,WSW,256,5.0,6.0,81,0.20,BKN,BKN,0.20,WeatherDisplay:10.37,2013-04-19 21:30:00,
2013-04-19 17:40:00,76.1,69.9,29.87,WSW,255,3.0,12.0,81,0.21,RA,RA,0.21,WeatherDisplay:10.37,2013-04-19 21:40:00,
2013-04-19 17:45:00,77.0,70.0,29.87,WSW,244,5.0,6.0,79,0.21,BKN,BKN,0.21,WeatherDisplay:10.37,2013-04-19 21:45:00,
2013-04-19 17:50:00,77.4,70.3,29.87,WSW,244,2.0,6.0,79,0.18,BKN,BKN,0.21,WeatherDisplay:10.37,2013-04-19 21:50:00,
2013-04-19 18:00:00,77.0,70.7,29.87,West,265,2.0,4.0,81,0.06,BKN,BKN,0.21,WeatherDisplay:10.37,2013-04-19 22:00:00,
2013-04-19 18:05:00,77.3,70.7,29.86,West,267,2.0,5.0,80,0.06,BKN,BKN,0.21,WeatherDisplay:10.37,2013-04-19 22:05:00,
2013-04-19 18:10:00,78.1,71.8,29.86,West,266,3.0,5.0,81,0.06,BKN,BKN,0.21,WeatherDisplay:10.37,2013-04-19 22:10:00,
2013-04-19 18:20:00,80.0,72.9,29.86,West,262,3.0,7.0,79,0.01,BKN,BKN,0.21,WeatherDisplay:10.37,2013-04-19 22:20:00,
2013-04-19 18:25:00,80.7,73.2,29.86,WSW,251,3.0,6.0,78,0.01,BKN,BKN,0.21,WeatherDisplay:10.37,2013-04-19 22:25:00,
2013-04-19 18:30:00,80.9,73.4,29.87,WSW,248,3.0,5.0,78,0.01,BKN,BKN,0.21,WeatherDisplay:10.37,2013-04-19 22:30:00,
2013-04-19 18:40:00,80.6,73.1,29.87,WSW,254,3.0,5.0,78,0.00,BKN,BKN,0.21,WeatherDisplay:10.37,2013-04-19 22:40:00,
2013-04-19 18:45:00,81.1,73.6,29.87,WSW,256,2.0,4.0,78,0.00,BKN,BKN,0.21,WeatherDisplay:10.37,2013-04-19 22:45:00,
2013-04-19 18:50:00,81.7,73.4,29.87,WSW,245,3.0,5.0,76,0.00,BKN,BKN,0.21,WeatherDisplay:10.37,2013-04-19 22:50:00,
2013-04-19 19:00:00,81.7,73.0,29.88,WSW,241,2.0,5.0,75,0.00,BKN,BKN,0.21,WeatherDisplay:10.37,2013-04-19 23:00:00,
2013-04-19 19:05:00,82.0,72.9,29.88,SW,236,3.0,5.0,74,0.00,BKN,BKN,0.21,WeatherDisplay:10.37,2013-04-19 23:05:00,
2013-04-19 19:10:00,82.0,72.9,29.88,SW,229,3.0,5.0,74,0.00,BKN,BKN,0.21,WeatherDisplay:10.37,2013-04-19 23:10:00,
2013-04-19 19:15:00,82.2,73.1,29.88,SW,222,2.0,3.0,74,0.00,BKN,BKN,0.21,WeatherDisplay:10.37,2013-04-19 23:15:00,
2013-04-19 19:20:00,82.4,72.9,29.88,SSW,211,2.0,3.0,73,0.00,BKN,BKN,0.21,WeatherDisplay:10.37,2013-04-19 23:20:00,
2013-04-19 19:25:00,82.3,72.4,29.88,SW,215,3.0,5.0,72,0.00,BKN,BKN,0.21,WeatherDisplay:10.37,2013-04-19 23:25:00,
2013-04-19 19:30:00,82.1,72.6,29.89,SW,225,2.0,3.0,73,0.00,BKN,BKN,0.21,WeatherDisplay:10.37,2013-04-19 23:30:00,
2013-04-19 19:40:00,82.0,72.5,29.89,SW,220,1.0,2.0,73,0.00,BKN,BKN,0.21,WeatherDisplay:10.37,2013-04-19 23:40:00,
2013-04-19 19:45:00,82.0,72.5,29.90,South,184,3.0,4.0,73,0.00,BKN,BKN,0.21,WeatherDisplay:10.37,2013-04-19 23:45:00,
2013-04-19 19:50:00,81.5,70.8,29.90,SSE,158,6.0,9.0,70,0.00,BKN,BKN,0.21,WeatherDisplay:10.37,2013-04-19 23:50:00,
2013-04-19 20:00:00,80.2,69.1,29.91,SSE,154,8.0,9.0,69,0.00,BKN,BKN,0.21,WeatherDisplay:10.37,2013-04-20 00:00:00,
2013-04-19 20:05:00,79.8,69.1,29.91,SSE,156,7.0,8.0,70,0.00,BKN,BKN,0.21,WeatherDisplay:10.37,2013-04-20 00:05:00,
2013-04-19 20:10:00,79.3,68.6,29.92,SSE,153,9.0,10.0,70,0.00,BKN,BKN,0.21,WeatherDisplay:10.37,2013-04-20 00:10:00,
2013-04-19 20:20:00,78.4,68.7,29.92,SSE,159,7.0,8.0,72,0.00,BKN,BKN,0.21,WeatherDisplay:10.37,2013-04-20 00:20:00,
2013-04-19 20:25:00,78.2,68.9,29.92,SSE,155,5.0,7.0,73,0.00,BKN,BKN,0.21,WeatherDisplay:10.37,2013-04-20 00:25:00,
2013-04-19 20:30:00,78.1,69.1,29.92,SSE,148,7.0,8.0,74,0.00,BKN,BKN,0.21,WeatherDisplay:10.37,2013-04-20 00:30:00,
2013-04-19 20:40:00,77.7,69.2,29.92,SE,141,6.0,9.0,75,0.00,BKN,BKN,0.21,WeatherDisplay:10.37,2013-04-20 00:40:00,
2013-04-19 20:50:00,77.4,68.9,29.93,SSE,158,5.0,7.0,75,0.00,BKN,BKN,0.21,WeatherDisplay:10.37,2013-04-20 00:50:00,
2013-04-19 21:00:00,77.5,69.0,29.94,SSE,164,8.0,12.0,75,0.00,BKN,BKN,0.21,WeatherDisplay:10.37,2013-04-20 01:00:00,
2013-04-19 21:05:00,77.7,69.2,29.94,South,170,9.0,14.0,75,0.00,OVC,OVC,0.21,WeatherDisplay:10.37,2013-04-20 01:05:00,
2013-04-19 21:10:00,77.7,69.2,29.94,South,179,7.0,16.0,75,0.00,OVC,OVC,0.21,WeatherDisplay:10.37,2013-04-20 01:10:00,
2013-04-19 21:15:00,77.7,69.1,29.94,South,179,7.0,10.0,75,0.00,OVC,OVC,0.21,WeatherDisplay:10.37,2013-04-20 01:15:00,
2013-04-19 21:20:00,77.4,69.2,29.95,South,178,12.0,14.0,76,0.00,OVC,OVC,0.21,WeatherDisplay:10.37,2013-04-20 01:20:00,
2013-04-19 21:30:00,77.0,69.2,29.95,South,173,5.0,9.0,77,0.00,OVC,OVC,0.21,WeatherDisplay:10.37,2013-04-20 01:30:00,
2013-04-19 21:35:00,76.7,69.0,29.95,South,178,9.0,12.0,77,0.00,OVC,OVC,0.21,WeatherDisplay:10.37,2013-04-20 01:35:00,
2013-04-19 21:40:00,76.6,69.2,29.95,South,185,7.0,10.0,78,0.00,OVC,OVC,0.21,WeatherDisplay:10.37,2013-04-20 01:40:00,
2013-04-19 21:45:00,76.5,69.1,29.96,South,184,6.0,7.0,78,0.00,OVC,OVC,0.21,WeatherDisplay:10.37,2013-04-20 01:45:00,
2013-04-19 21:50:00,76.4,69.0,29.96,South,181,7.0,12.0,78,0.00,OVC,OVC,0.21,WeatherDisplay:10.37,2013-04-20 01:50:00,
2013-04-19 22:00:00,76.2,68.8,29.96,South,177,7.0,9.0,78,0.00,OVC,OVC,0.21,WeatherDisplay:10.37,2013-04-20 02:00:00,
2013-04-19 22:05:00,76.1,68.7,29.96,South,182,3.0,8.0,78,0.00,SCT,SCT,0.21,WeatherDisplay:10.37,2013-04-20 02:05:00,
2013-04-19 22:10:00,75.9,68.6,29.96,South,179,7.0,8.0,78,0.00,SCT,SCT,0.21,WeatherDisplay:10.37,2013-04-20 02:10:00,
2013-04-19 22:20:00,75.6,68.6,29.96,South,189,6.0,9.0,79,0.00,SCT,SCT,0.21,WeatherDisplay:10.37,2013-04-20 02:20:00,
2013-04-19 22:25:00,75.4,68.8,29.96,South,190,8.0,9.0,80,0.00,SCT,SCT,0.21,WeatherDisplay:10.37,2013-04-20 02:25:00,
2013-04-19 22:30:00,75.2,68.6,29.97,South,182,6.0,9.0,80,0.00,SCT,SCT,0.21,WeatherDisplay:10.37,2013-04-20 02:30:00,
2013-04-19 22:35:00,75.1,68.9,29.96,South,186,6.0,7.0,81,0.00,SCT,SCT,0.21,WeatherDisplay:10.37,2013-04-20 02:35:00,
2013-04-19 22:40:00,74.9,68.7,29.97,South,184,5.0,7.0,81,0.00,SCT,SCT,0.21,WeatherDisplay:10.37,2013-04-20 02:40:00,
2013-04-19 22:45:00,74.8,68.6,29.97,South,178,6.0,8.0,81,0.00,SCT,SCT,0.21,WeatherDisplay:10.37,2013-04-20 02:45:00,
2013-04-19 22:50:00,74.8,69.0,29.97,South,179,3.0,8.0,82,0.00,SCT,SCT,0.21,WeatherDisplay:10.37,2013-04-20 02:50:00,
2013-04-19 22:55:00,74.7,68.8,29.97,SSW,193,6.0,7.0,82,0.00,SCT,SCT,0.21,WeatherDisplay:10.37,2013-04-20 02:55:00,
2013-04-19 23:00:00,74.6,69.0,29.97,South,188,3.0,7.0,83,0.00,SCT,SCT,0.21,WeatherDisplay:10.37,2013-04-20 03:00:00,
2013-04-19 23:05:00,74.5,69.0,29.96,South,187,3.0,8.0,83,0.00,SCT,SCT,0.21,WeatherDisplay:10.37,2013-04-20 03:05:00,
2013-04-19 23:10:00,74.5,69.3,29.96,SSW,197,2.0,5.0,84,0.00,SCT,SCT,0.21,WeatherDisplay:10.37,2013-04-20 03:10:00,
2013-04-19 23:20:00,74.2,69.4,29.96,SSW,203,3.0,5.0,85,0.00,SCT,SCT,0.21,WeatherDisplay:10.37,2013-04-20 03:20:00,
2013-04-19 23:25:00,74.2,69.4,29.97,SSW,192,3.0,6.0,85,0.00,SCT,SCT,0.21,WeatherDisplay:10.37,2013-04-20 03:25:00,
2013-04-19 23:30:00,74.2,69.4,29.97,South,185,2.0,6.0,85,0.00,SCT,SCT,0.21,WeatherDisplay:10.37,2013-04-20 03:30:00,
2013-04-19 23:40:00,74.3,69.5,29.97,South,176,5.0,7.0,85,0.00,SCT,SCT,0.21,WeatherDisplay:10.37,2013-04-20 03:40:00,
2013-04-19 23:50:00,74.3,69.8,29.97,South,181,3.0,5.0,86,0.00,SCT,SCT,0.21,WeatherDisplay:10.37,2013-04-20 03:50:00,
2013-04-19 23:55:00,74.3,69.8,29.96,South,190,5.0,5.0,86,0.00,SCT,SCT,0.21,WeatherDisplay:10.37,2013-04-20 03:55:00,